NOAA NWS Hourly Roundups by Site

Regional Weather Roundup for San Diego, CA

To Select Another Site Choose from List

Select Site:  

000
ASUS46 KSGX 012211
RWRSGX

SAN DIEGO HOURLY WEATHER ROUNDUP
NATIONAL WEATHER SERVICE SAN DIEGO CA
200 PM PST MON MAR 01 2021

NOTE: "FAIR" INDICATES FEW OR NO CLOUDS BELOW 12,000 FEET WITH NO
SIGNIFICANT WEATHER AND/OR OBSTRUCTIONS TO VISIBILITY.

CAZ042-043-060-061-PZZ750-775-012300-

GREATER SAN DIEGO AREA

CITY           SKY/WX    TMP DP  RH WIND       PRES   REMARKS
SAN DIEGO AP   SUNNY     77  10   7 SW7       30.10F
BROWN FIELD    SUNNY     75   8   7 SE18      30.08F
MIRAMAR MCAS   SUNNY     78  15   9 W9        30.09F
MONTGOMERY FLD SUNNY     76  15  10 W10       30.09F
GILLESPIE FLD  SUNNY     75   9   7 VRB6      30.09F
LEMON GROVE      N/A     75  23  14 CALM      30.06F

$$

NORTH SAN DIEGO COUNTY

CITY           SKY/WX    TMP DP  RH WIND       PRES   REMARKS
CAMP PENDLETON SUNNY     77   5   6 VRB7      30.08F
OCEANSIDE AP   SUNNY     73  16  11 SW10      30.08F
OCEANSIDE HBR    N/A     63  43  48 W3        30.16F
VISTA            N/A     75  28  17 W2        30.07F
CARLSBAD       SUNNY     70   6   8 W9        30.09F
ENCINITAS        N/A     73  21  14 NW3         N/A
LA JOLLA SCRIP   N/A     68  20  16 CALM      30.10F
FALLBROOK      FAIR      75   9   7 E3        30.10F
ESCONDIDO        N/A     76  11   8 E9        30.09F
SAN MARCOS       N/A     75  13   9 CALM      30.11F
RANCHO BERNARD   N/A     74  18  12 E3        30.08F
POWAY            N/A     79  18  10 N1        30.11F

$$

EAST SAN DIEGO COUNTY

CITY           SKY/WX    TMP DP  RH WIND       PRES   REMARKS
RAMONA         SUNNY     71  12  10 E12       30.11F
LA MESA          N/A     76  16  10 CALM      30.04F
DESCANSO N       N/A     60   7  12 NE26      30.16F

$$

ORANGE COUNTY AND THE LOS ANGELES BASIN

CITY           SKY/WX    TMP DP  RH WIND       PRES   REMARKS
JOHN WAYNE AP  SUNNY     72  14  11 SW12      30.10F
LAGUNA BEACH     N/A     69  37  30 SW3       30.10F
LAKE FOREST FR   N/A     75  12   9 W2        29.97F
HUNTINGTON BCH   N/A     71  29  21 SW3       30.10F
LOS ALAMITOS   SUNNY     73  11   9 S12       30.10F
FULLERTON      SUNNY     75  12   9 SW12G20   30.09F
LONG BEACH     SUNNY     71   4   7 S10       30.10F
L.A. AP        SUNNY     71  16  12 SW13      30.10F
L.A. DOWNTOWN  SUNNY     76  10   8 CALM      30.08F

$$

THE INLAND EMPIRE

CITY           SKY/WX    TMP DP  RH WIND       PRES   REMARKS
CORONA         SUNNY     76  11   8 E6        30.10F
UPLAND AP      FAIR      72   0   6 E8G18     30.12F
CHINO          SUNNY     74  10   8 E10G17    30.11F
ONTARIO        SUNNY     74   6   7 VRB7      30.11F
SAN BERNARDINO SUNNY     73   7   7 S6        30.12F
RIVERSIDE AP   SUNNY     73   5   7 E9        30.11F
MARCH ARB      SUNNY     70   3   7 E7        30.12F
HEMET AP       FAIR      71  10   9 CALM      30.12F
FRENCH VALLEY  FAIR      73   3   6 E10       30.11F

$$

SAN BERNARDINO AND RIVERSIDE COUNTY MOUNTAINS

CITY           SKY/WX    TMP DP  RH WIND       PRES   REMARKS
BIG BEAR AP    SUNNY     48  -4  11 E7        30.22S
BIG BEAR LAKE    N/A     52   7  16 S5        30.27F
LK ARROWHEAD N   N/A     60  12  15 CALM      30.23F
WRIGHTWOOD       N/A     48   7  18 CALM      30.23F
IDYLLWILD        N/A     60  11  14 S3        30.14F

$$

SOUTHERN DESERT INCLUDING THE COACHELLA VALLEY

CITY           SKY/WX    TMP DP  RH WIND       PRES   REMARKS
PALM SPRINGS   SUNNY     70   2   7 SE13      30.22F
THOUSAND PALMS   N/A     70   8   9 E7        30.17F
PALM DESERT      N/A     73   5   7 SE1         N/A
INDIO            N/A     69   8   9 SE5       30.19F
THERMAL        SUNNY     72   3   6 SE10      30.20F
BORREGO AP     FAIR      68  -8   5 E9        30.21F
OCOTILLO WELLS   N/A     70   3   7 E1        30.14F
CANEBRAKE        N/A     64  -9   5 E1        30.19F
BLYTHE         SUNNY     68  -4   5 CALM      30.21F
IMPERIAL AP    SUNNY     68   6   9 SE5       30.19F
EL CENTRO NAS  MOSUNNY   70   0   6 SE7       30.22F
YUMA AZ        SUNNY     70   2   7 E6        30.19F

$$

UPPER DESERT

CITY           SKY/WX    TMP DP  RH WIND       PRES   REMARKS
VICTORVILLE AP SUNNY    N/A N/A N/A CALM      30.18F
HESPERIA         N/A     59   4  11 NE9       30.08F
APPLE VALLEY     N/A     63   6  10 W3        30.29F
PALMDALE       SUNNY     61   4  10 NE6       30.18F
LANCASTER      SUNNY     62  -1   8 NE10      30.19F
EDWARDS AFB    SUNNY     62  -3   7 NE7       30.17F
GRAY BUTTE AP  FAIR      59   0   9 VRB7      30.16F
DAGGETT        SUNNY     64  -1   7 E16G29    30.19F
29 PALMS N     SUNNY     63  -6   6 E12       30.27F
29 PALMS JTNP    N/A     63   3   9 E3        30.20F
NEEDLES        SUNNY     68  -6   5 NE5       30.22F

$$

REGIONAL REPORTS

CITY           SKY/WX    TMP DP  RH WIND       PRES   REMARKS
SANTA BARBARA  SUNNY     66  24  20 SE9       30.11F
SANDBERG       SUNNY     53   3  13 E18G29    30.19F
LAS VEGAS NV   SUNNY     58   2  10 CALM      30.25F
PHOENIX AZ     MOSUNNY   69   8   9 VRB5      30.18F
TIJUANA        SUNNY     73   3   6 NE16      30.12F
ENSENADA NW      N/A     65  32  29 SW6       30.05F

$$

OFFSHORE ISLANDS

CITY           SKY/WX    TMP DP  RH WIND       PRES   REMARKS
CATALINA ARPT  SUNNY     66  23  19 E6        30.14F
SAN CLEMENTE I SUNNY     67  50  54 SW7       30.13F
SAN NICOLAS IS SUNNY     64  37  36 VRB6      30.12F

$$

MARINE AND OFFSHORE BUOY REPORTS

STATION/POSITION SKY/WX   TEMP    WIND        PRES    VSBY  SWELL
                          AIR SEA DIR/SP/G                  HT/PER/DIR
                          (F)     (DEG/KT/KT) (MB)    (MI)  (FT/S/D)
TANNER BANKS               58     120/  4/  6 1019.7F         5/300/13
S CLEMENTE BASIN           60                 1019.5F         3/280/13
SAN NICOLAS IS.               57                N/A           3/310/13
SO. S. ROSA ISLA              56                N/A           5/300/12
W. S. BARBARA CH                  140/  6/  8 1019.8F
M. S. BARBARA CH           59 55  340/  6/  8 1020.3F         3/270/13
S. MONICA BASIN            60     170/  4/  4 1020.2F         2/250/14
S PEDRO CHANNEL               59                N/A           2/280/11
OCEANSIDE OFFSHR              60                N/A           2/200/15
TORREY PINES OTR              60                N/A           2/200/15
SAN DIEGO BAY                 61              1019.1
IMPERIAL BEACH                59                N/A           2/270/11
POINT LOMA SOUTH              60                N/A           3/280/13

$$




 

View Past Reports for San Diego, CA.

Products Courtesy of NOAA-NWS
NWS Information Parsing Script by Ken True at Saratoga Weather - Script by SE Lincoln Weather.